Terminal Aerodrome Forecast
Issued by NWS

Home | Current Version | Previous Version | Text Only | Print | Product List | Glossary On
Versions: 1 2 3 4 5 6 7 8 9 10 11 12 13 14 15 16 17 18 19 20 21
000
FTUS41 KBTV 250806 AAB
TAFMPV
TAF AMD
KMPV 250806Z 2508/2606 VRB03KT 2SM BR BKN001
      TEMPO 2508/2512 3/4SM BR VV001
     FM251200 00000KT P6SM FEW250
     FM251800 22006KT P6SM SCT050
     FM252300 20004KT 6SM -SHRA BR OVC045
     FM260200 24006KT P6SM OVC040
     FM260500 27006KT P6SM OVC030=

USA.gov is the U.S. government's official web portal to all federal, state and local government web resources and services.